Year,Month,Day,Hour,Minute,Value (Times are PST for temperature in C)
2021,08,13,00,00,28.00
2021,08,13,00,01,28.00
2021,08,13,00,02,28.00
2021,08,13,00,03,28.00
2021,08,13,00,04,28.00
2021,08,13,00,05,28.00
2021,08,13,00,06,28.00
2021,08,13,00,07,28.00
2021,08,13,00,08,28.00
2021,08,13,00,09,28.00
2021,08,13,00,10,28.00
2021,08,13,00,11,28.00
2021,08,13,00,12,28.10
2021,08,13,00,13,28.10
2021,08,13,00,14,28.10
2021,08,13,00,15,28.10
2021,08,13,00,16,28.10
2021,08,13,00,17,28.10
2021,08,13,00,18,28.10
2021,08,13,00,19,28.10
2021,08,13,00,20,28.10
2021,08,13,00,21,28.10
2021,08,13,00,22,28.10
2021,08,13,00,23,28.10
2021,08,13,00,24,28.10
2021,08,13,00,25,28.10
2021,08,13,00,26,28.10
2021,08,13,00,27,28.10
2021,08,13,00,28,28.10
2021,08,13,00,29,28.10
2021,08,13,00,30,28.10
2021,08,13,00,31,28.10
2021,08,13,00,32,28.10
2021,08,13,00,33,28.10
2021,08,13,00,34,28.10
2021,08,13,00,35,28.00
2021,08,13,00,36,28.00
2021,08,13,00,37,27.90
2021,08,13,00,38,27.90
2021,08,13,00,39,27.80
2021,08,13,00,40,27.80
2021,08,13,00,41,27.70
2021,08,13,00,42,27.70
2021,08,13,00,43,27.60
2021,08,13,00,44,27.60
2021,08,13,00,45,27.50
2021,08,13,00,46,27.40
2021,08,13,00,47,27.40
2021,08,13,00,48,27.40
2021,08,13,00,49,27.30
2021,08,13,00,50,27.30
2021,08,13,00,51,27.30
2021,08,13,00,52,27.30
2021,08,13,00,53,27.20
2021,08,13,00,54,27.10
2021,08,13,00,55,27.00
2021,08,13,00,56,26.90
2021,08,13,00,57,26.80
2021,08,13,00,58,26.70
2021,08,13,00,59,26.60
2021,08,13,01,00,26.40
2021,08,13,01,01,26.30
2021,08,13,01,02,26.20
2021,08,13,01,03,26.10
2021,08,13,01,04,26.10
2021,08,13,01,05,26.00
2021,08,13,01,06,25.90
2021,08,13,01,07,25.90
2021,08,13,01,08,25.80
2021,08,13,01,09,25.70
2021,08,13,01,10,25.60
2021,08,13,01,11,25.50
2021,08,13,01,12,25.50
2021,08,13,01,13,25.40
2021,08,13,01,14,25.40
2021,08,13,01,15,25.40
2021,08,13,01,16,25.40
2021,08,13,01,17,25.30
2021,08,13,01,18,25.30
2021,08,13,01,19,25.30
2021,08,13,01,20,25.30
2021,08,13,01,21,25.30
2021,08,13,01,22,25.30
2021,08,13,01,23,25.30
2021,08,13,01,24,25.30
2021,08,13,01,25,25.30
2021,08,13,01,26,25.30
2021,08,13,01,27,25.20
2021,08,13,01,28,25.20
2021,08,13,01,29,25.20
2021,08,13,01,30,25.20
2021,08,13,01,31,25.10
2021,08,13,01,32,25.10
2021,08,13,01,33,25.10
2021,08,13,01,34,25.10
2021,08,13,01,35,25.00
2021,08,13,01,36,25.00
2021,08,13,01,37,25.00
2021,08,13,01,38,25.00
2021,08,13,01,39,25.00
2021,08,13,01,40,25.00
2021,08,13,01,41,25.00
2021,08,13,01,42,25.10
2021,08,13,01,43,25.10
2021,08,13,01,44,25.10
2021,08,13,01,45,25.10
2021,08,13,01,46,25.20
2021,08,13,01,47,25.20
2021,08,13,01,48,25.20
2021,08,13,01,49,25.20
2021,08,13,01,50,25.20
2021,08,13,01,51,25.20
2021,08,13,01,52,25.20
2021,08,13,01,53,25.20
2021,08,13,01,54,25.30
2021,08,13,01,55,25.30
2021,08,13,01,56,25.30
2021,08,13,01,57,25.30
2021,08,13,01,58,25.30
2021,08,13,01,59,25.40
2021,08,13,02,00,25.40
2021,08,13,02,01,25.40
2021,08,13,02,02,25.50
2021,08,13,02,03,25.50
2021,08,13,02,04,25.50
2021,08,13,02,05,25.50
2021,08,13,02,06,25.50
2021,08,13,02,07,25.60
2021,08,13,02,08,25.60
2021,08,13,02,09,25.60
2021,08,13,02,10,25.70
2021,08,13,02,11,25.70
2021,08,13,02,12,25.70
2021,08,13,02,13,25.70
2021,08,13,02,14,25.80
2021,08,13,02,15,25.80
2021,08,13,02,16,25.80
2021,08,13,02,17,25.80
2021,08,13,02,18,25.80
2021,08,13,02,19,25.90
2021,08,13,02,20,25.90
2021,08,13,02,21,25.90
2021,08,13,02,22,25.90
2021,08,13,02,23,25.80
2021,08,13,02,24,25.80
2021,08,13,02,25,25.90
2021,08,13,02,26,25.90
2021,08,13,02,27,25.90
2021,08,13,02,28,25.90
2021,08,13,02,29,26.00
2021,08,13,02,30,26.00
2021,08,13,02,31,26.10
2021,08,13,02,32,26.10
2021,08,13,02,33,26.20
2021,08,13,02,34,26.20
2021,08,13,02,35,26.30
2021,08,13,02,36,26.30
2021,08,13,02,37,26.30
2021,08,13,02,38,26.30
2021,08,13,02,39,26.30
2021,08,13,02,40,26.20
2021,08,13,02,41,26.20
2021,08,13,02,42,26.20
2021,08,13,02,43,26.20
2021,08,13,02,44,26.20
2021,08,13,02,45,26.10
2021,08,13,02,46,26.10
2021,08,13,02,47,26.10
2021,08,13,02,48,26.10
2021,08,13,02,49,26.10
2021,08,13,02,50,26.10
2021,08,13,02,51,26.20
2021,08,13,02,52,26.20
2021,08,13,02,53,26.20
2021,08,13,02,54,26.30
2021,08,13,02,55,26.30
2021,08,13,02,56,26.40
2021,08,13,02,57,26.40
2021,08,13,02,58,26.40
2021,08,13,02,59,26.40
2021,08,13,03,00,26.40
2021,08,13,03,01,26.40
2021,08,13,03,02,26.40
2021,08,13,03,03,26.40
2021,08,13,03,04,26.40
2021,08,13,03,05,26.40
2021,08,13,03,06,26.30
2021,08,13,03,07,26.30
2021,08,13,03,08,26.30
2021,08,13,03,09,26.20
2021,08,13,03,10,26.20
2021,08,13,03,11,26.10
2021,08,13,03,12,26.10
2021,08,13,03,13,26.00
2021,08,13,03,14,26.00
2021,08,13,03,15,25.90
2021,08,13,03,16,25.90
2021,08,13,03,17,25.80
2021,08,13,03,18,25.80
2021,08,13,03,19,25.80
2021,08,13,03,20,25.80
2021,08,13,03,21,25.70
2021,08,13,03,22,25.70
2021,08,13,03,23,25.70
2021,08,13,03,24,25.70
2021,08,13,03,25,25.70
2021,08,13,03,26,25.60
2021,08,13,03,27,25.30
2021,08,13,03,28,25.10
2021,08,13,03,29,24.80
2021,08,13,03,30,24.60
2021,08,13,03,31,24.20
2021,08,13,03,32,23.90
2021,08,13,03,33,23.60
2021,08,13,03,34,23.40
2021,08,13,03,35,23.20
2021,08,13,03,36,22.90
2021,08,13,03,37,22.70
2021,08,13,03,38,22.60
2021,08,13,03,39,22.50
2021,08,13,03,40,22.30
2021,08,13,03,41,22.10
2021,08,13,03,42,22.00
2021,08,13,03,43,21.80
2021,08,13,03,44,21.60
2021,08,13,03,45,21.50
2021,08,13,03,46,21.30
2021,08,13,03,47,21.30
2021,08,13,03,48,21.10
2021,08,13,03,49,20.90
2021,08,13,03,50,20.80
2021,08,13,03,51,20.60
2021,08,13,03,52,20.50
2021,08,13,03,53,20.40
2021,08,13,03,54,20.20
2021,08,13,03,55,20.20
2021,08,13,03,56,20.20
2021,08,13,03,57,20.10
2021,08,13,03,58,20.00
2021,08,13,03,59,19.90
2021,08,13,04,00,19.90
2021,08,13,04,01,19.80
2021,08,13,04,02,19.80
2021,08,13,04,03,19.70
2021,08,13,04,04,19.70
2021,08,13,04,05,19.60
2021,08,13,04,06,19.60
2021,08,13,04,07,19.50
2021,08,13,04,08,19.50
2021,08,13,04,09,19.50
2021,08,13,04,10,19.50
2021,08,13,04,11,19.50
2021,08,13,04,12,19.50
2021,08,13,04,13,19.50
2021,08,13,04,14,19.50
2021,08,13,04,15,19.50
2021,08,13,04,16,19.50
2021,08,13,04,17,19.60
2021,08,13,04,18,19.60
2021,08,13,04,19,19.70
2021,08,13,04,20,19.80
2021,08,13,04,21,19.90
2021,08,13,04,22,19.90
2021,08,13,04,23,20.10
2021,08,13,04,24,20.10
2021,08,13,04,25,20.20
2021,08,13,04,26,20.20
2021,08,13,04,27,20.30
2021,08,13,04,28,20.40
2021,08,13,04,29,20.50
2021,08,13,04,30,20.50
2021,08,13,04,31,20.60
2021,08,13,04,32,20.70
2021,08,13,04,33,20.80
2021,08,13,04,34,20.90
2021,08,13,04,35,21.10
2021,08,13,04,36,21.20
2021,08,13,04,37,21.30
2021,08,13,04,38,21.30
2021,08,13,04,39,21.40
2021,08,13,04,40,21.50
2021,08,13,04,41,21.60
2021,08,13,04,42,21.60
2021,08,13,04,43,21.60
2021,08,13,04,44,21.60
2021,08,13,04,45,21.70
2021,08,13,04,46,21.70
2021,08,13,04,47,21.70
2021,08,13,04,48,21.70
2021,08,13,04,49,21.80
2021,08,13,04,50,21.80
2021,08,13,04,51,21.80
2021,08,13,04,52,21.80
2021,08,13,04,53,21.90
2021,08,13,04,54,21.90
2021,08,13,04,55,21.90
2021,08,13,04,56,21.90
2021,08,13,04,57,21.90
2021,08,13,04,58,22.00
2021,08,13,04,59,22.00
2021,08,13,05,00,22.00
2021,08,13,05,01,22.00
2021,08,13,05,02,22.10
2021,08,13,05,03,22.10
2021,08,13,05,04,22.10
2021,08,13,05,05,22.10
2021,08,13,05,06,22.10
2021,08,13,05,07,22.10
2021,08,13,05,08,22.20
2021,08,13,05,09,22.20
2021,08,13,05,10,22.20
2021,08,13,05,11,22.20
2021,08,13,05,12,22.10
2021,08,13,05,13,22.10
2021,08,13,05,14,22.10
2021,08,13,05,15,22.10
2021,08,13,05,16,22.20
2021,08,13,05,17,22.20
2021,08,13,05,18,22.20
2021,08,13,05,19,22.30
2021,08,13,05,20,22.30
2021,08,13,05,21,22.40
2021,08,13,05,22,22.40
2021,08,13,05,23,22.50
2021,08,13,05,24,22.50
2021,08,13,05,25,22.50
2021,08,13,05,26,22.60
2021,08,13,05,27,22.60
2021,08,13,05,28,22.60
2021,08,13,05,29,22.70
2021,08,13,05,30,22.70
2021,08,13,05,31,22.80
2021,08,13,05,32,22.80
2021,08,13,05,33,22.90
2021,08,13,05,34,22.90
2021,08,13,05,35,22.90
2021,08,13,05,36,22.90
2021,08,13,05,37,22.90
2021,08,13,05,38,22.90
2021,08,13,05,39,22.90
2021,08,13,05,40,22.90
2021,08,13,05,41,22.90
2021,08,13,05,42,22.90
2021,08,13,05,43,22.90
2021,08,13,05,44,22.90
2021,08,13,05,45,22.80
2021,08,13,05,46,22.80
2021,08,13,05,47,22.80
2021,08,13,05,48,22.80
2021,08,13,05,49,22.80
2021,08,13,05,50,22.80
2021,08,13,05,51,22.80
2021,08,13,05,52,22.80
2021,08,13,05,53,22.80
2021,08,13,05,54,22.90
2021,08,13,05,55,22.90
2021,08,13,05,56,22.90
2021,08,13,05,57,22.90
2021,08,13,05,58,22.90
2021,08,13,05,59,22.90
2021,08,13,06,00,22.90
2021,08,13,06,01,22.80
2021,08,13,06,02,22.80
2021,08,13,06,03,22.80
2021,08,13,06,04,22.80
2021,08,13,06,05,22.80
2021,08,13,06,06,22.80
2021,08,13,06,07,22.70
2021,08,13,06,08,22.70
2021,08,13,06,09,22.70
2021,08,13,06,10,22.70
2021,08,13,06,11,22.60
2021,08,13,06,12,22.60
2021,08,13,06,13,22.60
2021,08,13,06,14,22.60
2021,08,13,06,15,22.60
2021,08,13,06,16,22.60
2021,08,13,06,17,22.60
2021,08,13,06,18,22.60
2021,08,13,06,19,22.60
2021,08,13,06,20,22.60
2021,08,13,06,21,22.60
2021,08,13,06,22,22.60
2021,08,13,06,23,22.60
2021,08,13,06,24,22.60
2021,08,13,06,25,22.60
2021,08,13,06,26,22.50
2021,08,13,06,27,22.50
2021,08,13,06,28,22.50
2021,08,13,06,29,22.50
2021,08,13,06,30,22.50
2021,08,13,06,31,22.50
2021,08,13,06,32,22.50
2021,08,13,06,33,22.50
2021,08,13,06,34,22.50
2021,08,13,06,35,22.50
2021,08,13,06,36,22.50
2021,08,13,06,37,22.50
2021,08,13,06,38,22.50
2021,08,13,06,39,22.50
2021,08,13,06,40,22.50
2021,08,13,06,41,22.50
2021,08,13,06,42,22.50
2021,08,13,06,43,22.50
2021,08,13,06,44,22.50
2021,08,13,06,45,22.50
2021,08,13,06,46,22.50
2021,08,13,06,47,22.50
2021,08,13,06,48,22.50
2021,08,13,06,49,22.40
2021,08,13,06,50,22.40
2021,08,13,06,51,22.40
2021,08,13,06,52,22.40
2021,08,13,06,53,22.40
2021,08,13,06,54,22.50
2021,08,13,06,55,22.50
2021,08,13,06,56,22.50
2021,08,13,06,57,22.50
2021,08,13,06,58,22.50
2021,08,13,06,59,22.50
2021,08,13,07,00,22.60
2021,08,13,07,01,22.60
2021,08,13,07,02,22.60
2021,08,13,07,03,22.70
2021,08,13,07,04,22.70
2021,08,13,07,05,22.70
2021,08,13,07,06,22.70
2021,08,13,07,07,22.60
2021,08,13,07,08,22.60
2021,08,13,07,09,22.60
2021,08,13,07,10,22.60
2021,08,13,07,11,22.60
2021,08,13,07,12,22.60
2021,08,13,07,13,22.70
2021,08,13,07,14,22.70
2021,08,13,07,15,22.70
2021,08,13,07,16,22.70
2021,08,13,07,17,22.80
2021,08,13,07,18,22.80
2021,08,13,07,19,22.80
2021,08,13,07,20,22.80
2021,08,13,07,21,22.90
2021,08,13,07,22,22.90
2021,08,13,07,23,22.90
2021,08,13,07,24,22.90
2021,08,13,07,25,22.90
2021,08,13,07,26,22.90
2021,08,13,07,27,22.90
2021,08,13,07,28,22.90
2021,08,13,07,29,22.90
2021,08,13,07,30,22.90
2021,08,13,07,31,22.90
2021,08,13,07,32,22.80
2021,08,13,07,33,22.80
2021,08,13,07,34,22.70
2021,08,13,07,35,22.70
2021,08,13,07,36,22.70
2021,08,13,07,37,22.60
2021,08,13,07,38,22.60
2021,08,13,07,39,22.60
2021,08,13,07,40,22.70
2021,08,13,07,41,22.70
2021,08,13,07,42,22.70
2021,08,13,07,43,22.60
2021,08,13,07,44,22.70
2021,08,13,07,45,22.70
2021,08,13,07,46,22.70
2021,08,13,07,47,22.70
2021,08,13,07,48,22.70
2021,08,13,07,49,22.70
2021,08,13,07,50,22.70
2021,08,13,07,51,22.70
2021,08,13,07,52,22.70
2021,08,13,07,53,22.70
2021,08,13,07,54,22.70
2021,08,13,07,55,22.80
2021,08,13,07,56,22.80
2021,08,13,07,57,22.80
2021,08,13,07,58,22.80
2021,08,13,07,59,22.80
2021,08,13,08,00,22.80
2021,08,13,08,01,22.80
2021,08,13,08,02,22.80
2021,08,13,08,03,22.80
2021,08,13,08,04,22.90
2021,08,13,08,05,22.90
2021,08,13,08,06,22.90
2021,08,13,08,07,22.90
2021,08,13,08,08,22.90
2021,08,13,08,09,22.90
2021,08,13,08,10,22.90
2021,08,13,08,11,22.90
2021,08,13,08,12,22.90
2021,08,13,08,13,22.90
2021,08,13,08,14,22.90
2021,08,13,08,15,22.90
2021,08,13,08,16,22.90
2021,08,13,08,17,22.90
2021,08,13,08,18,22.90
2021,08,13,08,19,22.90
2021,08,13,08,20,22.90
2021,08,13,08,21,22.90
2021,08,13,08,22,22.90
2021,08,13,08,23,22.90
2021,08,13,08,24,22.90
2021,08,13,08,25,22.90
2021,08,13,08,26,22.90
2021,08,13,08,27,22.90
2021,08,13,08,28,22.90
2021,08,13,08,29,22.90
2021,08,13,08,30,22.90
2021,08,13,08,31,22.90
2021,08,13,08,32,22.90
2021,08,13,08,33,22.90
2021,08,13,08,34,22.90
2021,08,13,08,35,22.90
2021,08,13,08,36,22.90
2021,08,13,08,37,22.80
2021,08,13,08,38,22.80
2021,08,13,08,39,22.80
2021,08,13,08,40,22.80
2021,08,13,08,41,22.80
2021,08,13,08,42,22.80
2021,08,13,08,43,22.80
2021,08,13,08,44,22.80
2021,08,13,08,45,22.80
2021,08,13,08,46,22.80
2021,08,13,08,47,22.90
2021,08,13,08,48,22.90
2021,08,13,08,49,22.90
2021,08,13,08,50,23.00
2021,08,13,08,51,23.10
2021,08,13,08,52,23.20
2021,08,13,08,53,23.30
2021,08,13,08,54,23.30
2021,08,13,08,55,23.30
2021,08,13,08,56,23.40
2021,08,13,08,57,23.60
2021,08,13,08,58,23.70
2021,08,13,08,59,23.70
2021,08,13,09,00,23.80
2021,08,13,09,01,24.00
2021,08,13,09,02,24.10
2021,08,13,09,03,24.10
2021,08,13,09,04,24.30
2021,08,13,09,05,24.40
2021,08,13,09,06,24.40
2021,08,13,09,07,24.50
2021,08,13,09,08,24.50
2021,08,13,09,09,24.60
2021,08,13,09,10,24.60
2021,08,13,09,11,24.70
2021,08,13,09,12,24.70
2021,08,13,09,13,24.80
2021,08,13,09,14,24.80
2021,08,13,09,15,24.80
2021,08,13,09,16,24.90
2021,08,13,09,17,24.90
2021,08,13,09,18,24.90
2021,08,13,09,19,24.80
2021,08,13,09,20,24.80
2021,08,13,09,21,24.70
2021,08,13,09,22,24.70
2021,08,13,09,23,24.60
2021,08,13,09,24,24.60
2021,08,13,09,25,24.50
2021,08,13,09,26,24.50
2021,08,13,09,27,24.50
2021,08,13,09,28,24.50
2021,08,13,09,29,24.50
2021,08,13,09,30,24.50
2021,08,13,09,31,24.40
2021,08,13,09,32,24.40
2021,08,13,09,33,24.30
2021,08,13,09,34,24.30
2021,08,13,09,35,24.20
2021,08,13,09,36,24.20
2021,08,13,09,37,24.10
2021,08,13,09,38,24.10
2021,08,13,09,39,24.10
2021,08,13,09,40,24.10
2021,08,13,09,41,24.10
2021,08,13,09,42,24.10
2021,08,13,09,43,24.20
2021,08,13,09,44,24.20
2021,08,13,09,45,24.30
2021,08,13,09,46,24.40
2021,08,13,09,47,24.40
2021,08,13,09,48,24.50
2021,08,13,09,49,24.50
2021,08,13,09,50,24.60
2021,08,13,09,51,24.60
2021,08,13,09,52,24.60
2021,08,13,09,53,24.60
2021,08,13,09,54,24.70
2021,08,13,09,55,24.70
2021,08,13,09,56,24.70
2021,08,13,09,57,24.80
2021,08,13,09,58,24.80
2021,08,13,09,59,24.80
2021,08,13,10,00,24.90
2021,08,13,10,01,24.90
2021,08,13,10,02,25.00
2021,08,13,10,03,25.10
2021,08,13,10,04,25.10
2021,08,13,10,05,25.20
2021,08,13,10,06,25.20
2021,08,13,10,07,25.20
2021,08,13,10,08,25.20
2021,08,13,10,09,25.20
2021,08,13,10,10,25.20
2021,08,13,10,11,25.20
2021,08,13,10,12,25.20
2021,08,13,10,13,25.20
2021,08,13,10,14,25.20
2021,08,13,10,15,25.20
2021,08,13,10,16,25.10
2021,08,13,10,17,25.10
2021,08,13,10,18,25.10
2021,08,13,10,19,25.10
2021,08,13,10,20,25.10
2021,08,13,10,21,25.10
2021,08,13,10,22,25.10
2021,08,13,10,23,25.10
2021,08,13,10,24,25.20
2021,08,13,10,25,25.20
2021,08,13,10,26,25.30
2021,08,13,10,27,25.40
2021,08,13,10,28,25.40
2021,08,13,10,29,25.40
2021,08,13,10,30,25.40
2021,08,13,10,31,25.40
2021,08,13,10,32,25.40
2021,08,13,10,33,25.40
2021,08,13,10,34,25.40
2021,08,13,10,35,25.40
2021,08,13,10,36,25.40
2021,08,13,10,37,25.40
2021,08,13,10,38,25.40
2021,08,13,10,39,25.30
2021,08,13,10,40,25.30
2021,08,13,10,41,25.40
2021,08,13,10,42,25.40
2021,08,13,10,43,25.40
2021,08,13,10,44,25.50
2021,08,13,10,45,25.60
2021,08,13,10,46,25.60
2021,08,13,10,47,25.60
2021,08,13,10,48,25.70
2021,08,13,10,49,25.70
2021,08,13,10,50,25.70
2021,08,13,10,51,25.70
2021,08,13,10,52,25.70
2021,08,13,10,53,25.70
2021,08,13,10,54,25.70
2021,08,13,10,55,25.80
2021,08,13,10,56,25.80
2021,08,13,10,57,25.90
2021,08,13,10,58,25.80
2021,08,13,10,59,25.80
2021,08,13,11,00,25.80
2021,08,13,11,01,25.80
2021,08,13,11,02,25.80
2021,08,13,11,03,25.80
2021,08,13,11,04,25.80
2021,08,13,11,05,25.80
2021,08,13,11,06,25.80
2021,08,13,11,07,25.80
2021,08,13,11,08,25.80
2021,08,13,11,09,25.80
2021,08,13,11,10,25.90
2021,08,13,11,11,25.90
2021,08,13,11,12,25.90
2021,08,13,11,13,26.00
2021,08,13,11,14,26.00
2021,08,13,11,15,26.10
2021,08,13,11,16,26.10
2021,08,13,11,17,26.20
2021,08,13,11,18,26.20
2021,08,13,11,19,26.30
2021,08,13,11,20,26.30
2021,08,13,11,21,26.30
2021,08,13,11,22,26.30
2021,08,13,11,23,26.40
2021,08,13,11,24,26.40
2021,08,13,11,25,26.40
2021,08,13,11,26,26.40
2021,08,13,11,27,26.40
2021,08,13,11,28,26.40
2021,08,13,11,29,26.40
2021,08,13,11,30,26.40
2021,08,13,11,31,26.50
2021,08,13,11,32,26.60
2021,08,13,11,33,26.60
2021,08,13,11,34,26.60
2021,08,13,11,35,26.60
2021,08,13,11,36,26.60
2021,08,13,11,37,26.60
2021,08,13,11,38,26.60
2021,08,13,11,39,26.60
2021,08,13,11,40,26.60
2021,08,13,11,41,26.60
2021,08,13,11,42,26.60
2021,08,13,11,43,26.60
2021,08,13,11,44,26.60
2021,08,13,11,45,26.60
2021,08,13,11,46,26.60
2021,08,13,11,47,26.60
2021,08,13,11,48,26.60
2021,08,13,11,49,26.60
2021,08,13,11,50,26.60
2021,08,13,11,51,26.60
2021,08,13,11,52,26.60
2021,08,13,11,53,26.70
2021,08,13,11,54,26.70
2021,08,13,11,55,26.70
2021,08,13,11,56,26.80
2021,08,13,11,57,26.80
2021,08,13,11,58,26.90
2021,08,13,11,59,27.10
2021,08,13,12,00,27.20
2021,08,13,12,01,27.30
2021,08,13,12,02,27.30
2021,08,13,12,03,27.30
2021,08,13,12,04,27.40
2021,08,13,12,05,27.40
2021,08,13,12,06,27.40
2021,08,13,12,07,27.30
2021,08,13,12,08,27.30
2021,08,13,12,09,27.30
2021,08,13,12,10,27.30
2021,08,13,12,11,27.30
2021,08,13,12,12,27.30
2021,08,13,12,13,27.30
2021,08,13,12,14,27.30
2021,08,13,12,15,27.30
2021,08,13,12,16,27.30
2021,08,13,12,17,27.40
2021,08,13,12,18,27.30
2021,08,13,12,19,27.20
2021,08,13,12,20,27.00
2021,08,13,12,21,26.90
2021,08,13,12,22,26.80
2021,08,13,12,23,26.80
2021,08,13,12,24,26.80
2021,08,13,12,25,26.80
2021,08,13,12,26,26.80
2021,08,13,12,27,26.90
2021,08,13,12,28,26.90
2021,08,13,12,29,26.80
2021,08,13,12,30,26.70
2021,08,13,12,31,26.60
2021,08,13,12,32,26.60
2021,08,13,12,33,26.60
2021,08,13,12,34,26.60
2021,08,13,12,35,26.60
2021,08,13,12,36,26.50
2021,08,13,12,37,26.50
2021,08,13,12,38,26.40
2021,08,13,12,39,26.40
2021,08,13,12,40,26.40
2021,08,13,12,41,26.40
2021,08,13,12,42,26.50
2021,08,13,12,43,26.60
2021,08,13,12,44,26.60
2021,08,13,12,45,26.70
2021,08,13,12,46,26.80
2021,08,13,12,47,26.90
2021,08,13,12,48,27.00
2021,08,13,12,49,27.10
2021,08,13,12,50,27.10
2021,08,13,12,51,27.20
2021,08,13,12,52,27.20
2021,08,13,12,53,27.30
2021,08,13,12,54,27.20
2021,08,13,12,55,27.10
2021,08,13,12,56,27.00
2021,08,13,12,57,26.90
2021,08,13,12,58,26.80
2021,08,13,12,59,26.70
2021,08,13,13,00,26.70
2021,08,13,13,01,26.60
2021,08,13,13,02,26.60
2021,08,13,13,03,26.50
2021,08,13,13,04,26.40
2021,08,13,13,05,26.40
2021,08,13,13,06,26.30
2021,08,13,13,07,26.30
2021,08,13,13,08,26.30
2021,08,13,13,09,26.40
2021,08,13,13,10,26.40
2021,08,13,13,11,26.40
2021,08,13,13,12,26.40
2021,08,13,13,13,26.50
2021,08,13,13,14,26.60
2021,08,13,13,15,26.60
2021,08,13,13,16,26.60
2021,08,13,13,17,26.60
2021,08,13,13,18,26.60
2021,08,13,13,19,26.60
2021,08,13,13,20,26.60
2021,08,13,13,21,26.70
2021,08,13,13,22,26.70
2021,08,13,13,23,26.80
2021,08,13,13,24,26.80
2021,08,13,13,25,26.90
2021,08,13,13,26,27.00
2021,08,13,13,27,27.20
2021,08,13,13,28,27.30
2021,08,13,13,29,27.30
2021,08,13,13,30,27.30
2021,08,13,13,31,27.30
2021,08,13,13,32,27.30
2021,08,13,13,33,27.30
2021,08,13,13,34,27.20
2021,08,13,13,35,27.10
2021,08,13,13,36,27.00
2021,08,13,13,37,26.90
2021,08,13,13,38,26.90
2021,08,13,13,39,26.90
2021,08,13,13,40,27.00
2021,08,13,13,41,27.10
2021,08,13,13,42,27.20
2021,08,13,13,43,27.20
2021,08,13,13,44,27.30
2021,08,13,13,45,27.30
2021,08,13,13,46,27.40
2021,08,13,13,47,27.40
2021,08,13,13,48,27.40
2021,08,13,13,49,27.30
2021,08,13,13,50,27.30
2021,08,13,13,51,27.30
2021,08,13,13,52,27.30
2021,08,13,13,53,27.40
2021,08,13,13,54,27.50
2021,08,13,13,55,27.60
2021,08,13,13,56,27.70
2021,08,13,13,57,27.80
2021,08,13,13,58,27.80
2021,08,13,13,59,27.80
2021,08,13,14,00,27.90
2021,08,13,14,01,28.00
2021,08,13,14,02,28.10
2021,08,13,14,03,28.20
2021,08,13,14,04,28.30
2021,08,13,14,05,28.40
2021,08,13,14,06,28.60
2021,08,13,14,07,28.60
2021,08,13,14,08,28.70
2021,08,13,14,09,28.70
2021,08,13,14,10,28.60
2021,08,13,14,11,28.60
2021,08,13,14,12,28.60
2021,08,13,14,13,28.50
2021,08,13,14,14,28.40
2021,08,13,14,15,28.40
2021,08,13,14,16,28.40
2021,08,13,14,17,28.50
2021,08,13,14,18,28.60
2021,08,13,14,19,28.50
2021,08,13,14,20,28.40
2021,08,13,14,21,28.40
2021,08,13,14,22,28.50
2021,08,13,14,23,28.60
2021,08,13,14,24,28.60
2021,08,13,14,25,28.60
2021,08,13,14,26,28.60
2021,08,13,14,27,28.70
2021,08,13,14,28,28.70
2021,08,13,14,29,28.70
2021,08,13,14,30,28.70
2021,08,13,14,31,28.70
2021,08,13,14,32,28.70
2021,08,13,14,33,28.60
2021,08,13,14,34,28.60
2021,08,13,14,35,28.50
2021,08,13,14,36,28.40
2021,08,13,14,37,28.40
2021,08,13,14,38,28.40
2021,08,13,14,39,28.60
2021,08,13,14,40,28.60
2021,08,13,14,41,28.70
2021,08,13,14,42,28.70
2021,08,13,14,43,28.80
2021,08,13,14,44,28.80
2021,08,13,14,45,28.80
2021,08,13,14,46,28.80
2021,08,13,14,47,28.80
2021,08,13,14,48,28.80
2021,08,13,14,49,28.90
2021,08,13,14,50,28.90
2021,08,13,14,51,28.90
2021,08,13,14,52,29.00
2021,08,13,14,53,29.10
2021,08,13,14,54,29.20
2021,08,13,14,55,29.30
2021,08,13,14,56,29.50
2021,08,13,14,57,29.60
2021,08,13,14,58,29.70
2021,08,13,14,59,29.80
2021,08,13,15,00,29.80
2021,08,13,15,01,29.90
2021,08,13,15,02,29.90
2021,08,13,15,03,29.80
2021,08,13,15,04,29.70
2021,08,13,15,05,29.70
2021,08,13,15,06,29.80
2021,08,13,15,07,29.80
2021,08,13,15,08,29.90
2021,08,13,15,09,30.00
2021,08,13,15,10,30.10
2021,08,13,15,11,30.30
2021,08,13,15,12,30.40
2021,08,13,15,13,30.60
2021,08,13,15,14,30.70
2021,08,13,15,15,30.80
2021,08,13,15,16,30.80
2021,08,13,15,17,30.90
2021,08,13,15,18,31.00
2021,08,13,15,19,31.00
2021,08,13,15,20,30.90
2021,08,13,15,21,30.90
2021,08,13,15,22,30.80
2021,08,13,15,23,30.70
2021,08,13,15,24,30.60
2021,08,13,15,25,30.50
2021,08,13,15,26,30.40
2021,08,13,15,27,30.40
2021,08,13,15,28,30.50
2021,08,13,15,29,30.60
2021,08,13,15,30,30.70
2021,08,13,15,31,30.70
2021,08,13,15,32,30.70
2021,08,13,15,33,30.60
2021,08,13,15,34,30.60
2021,08,13,15,35,30.40
2021,08,13,15,36,30.30
2021,08,13,15,37,30.30
2021,08,13,15,38,30.20
2021,08,13,15,39,30.00
2021,08,13,15,40,29.80
2021,08,13,15,41,29.80
2021,08,13,15,42,29.80
2021,08,13,15,43,29.80
2021,08,13,15,44,29.80
2021,08,13,15,45,29.90
2021,08,13,15,46,30.00
2021,08,13,15,47,30.10
2021,08,13,15,48,30.10
2021,08,13,15,49,30.20
2021,08,13,15,50,30.30
2021,08,13,15,51,30.30
2021,08,13,15,52,30.30
2021,08,13,15,53,30.40
2021,08,13,15,54,30.30
2021,08,13,15,55,30.20
2021,08,13,15,56,30.00
2021,08,13,15,57,29.90
2021,08,13,15,58,29.80
2021,08,13,15,59,29.80
2021,08,13,16,00,29.70
2021,08,13,16,01,29.70
2021,08,13,16,02,29.60
2021,08,13,16,03,29.60
2021,08,13,16,04,29.60
2021,08,13,16,05,29.60
2021,08,13,16,06,29.60
2021,08,13,16,07,29.60
2021,08,13,16,08,29.60
2021,08,13,16,09,29.70
2021,08,13,16,10,29.80
2021,08,13,16,11,29.80
2021,08,13,16,12,29.80
2021,08,13,16,13,29.80
2021,08,13,16,14,29.80
2021,08,13,16,15,29.90
2021,08,13,16,16,29.80
2021,08,13,16,17,29.70
2021,08,13,16,18,29.70
2021,08,13,16,19,29.70
2021,08,13,16,20,29.70
2021,08,13,16,21,29.70
2021,08,13,16,22,29.70
2021,08,13,16,23,29.70
2021,08,13,16,24,29.70
2021,08,13,16,25,29.80
2021,08,13,16,26,29.80
2021,08,13,16,27,29.90
2021,08,13,16,28,29.90
2021,08,13,16,29,29.90
2021,08,13,16,30,30.00
2021,08,13,16,31,30.10
2021,08,13,16,32,30.10
2021,08,13,16,33,30.10
2021,08,13,16,34,30.10
2021,08,13,16,35,30.10
2021,08,13,16,36,30.10
2021,08,13,16,37,30.00
2021,08,13,16,38,29.90
2021,08,13,16,39,29.90
2021,08,13,16,40,29.80
2021,08,13,16,41,29.80
2021,08,13,16,42,29.80
2021,08,13,16,43,29.70
2021,08,13,16,44,29.80
2021,08,13,16,45,29.80
2021,08,13,16,46,29.80
2021,08,13,16,47,29.80
2021,08,13,16,48,29.80
2021,08,13,16,49,29.80
2021,08,13,16,50,29.80
2021,08,13,16,51,29.80
2021,08,13,16,52,29.80
2021,08,13,16,53,29.90
2021,08,13,16,54,29.90
2021,08,13,16,55,29.90
2021,08,13,16,56,30.00
2021,08,13,16,57,30.10
2021,08,13,16,58,30.10
2021,08,13,16,59,30.20
2021,08,13,17,00,30.10
2021,08,13,17,01,30.10
2021,08,13,17,02,29.90
2021,08,13,17,03,29.90
2021,08,13,17,04,29.80
2021,08,13,17,05,29.80
2021,08,13,17,06,29.70
2021,08,13,17,07,29.70
2021,08,13,17,08,29.70
2021,08,13,17,09,29.60
2021,08,13,17,10,29.60
2021,08,13,17,11,29.60
2021,08,13,17,12,29.60
2021,08,13,17,13,29.60
2021,08,13,17,14,29.60
2021,08,13,17,15,29.60
2021,08,13,17,16,29.70
2021,08,13,17,17,29.70
2021,08,13,17,18,29.70
2021,08,13,17,19,29.80